Regional Weather Roundup
Issued by NWS

Home | Current Version | Previous Version | Text Only | Print | Product List | Glossary On
Versions: 1 2 3 4 5 6 7 8 9 10 11 12 13 14 15 16 17 18 19 20 21 22 23 24 25 26 27 28 29 30 31 32 33 34 35 36 37 38 39 40 41 42 43 44 45 46 47 48 49 50
943
ASUS43 KDTX 111710
RWRMI
MICHIGAN HOURLY REGIONAL WEATHER ROUNDUP
NATIONAL WEATHER SERVICE DETROIT/PONTIAC MI
1200 PM EST THU FEB 11 2016

NOTE: "FAIR" INDICATES FEW OR NO CLOUDS BELOW 12,000 FEET WITH NO
SIGNIFICANT WEATHER AND/OR OBSTRUCTION TO VISIBILITY.

MIZ047>049-052>055-059>063-066>070-074>076-081>083-111800-
SOUTHEAST LOWER MICHIGAN

CITY           SKY/WX    TMP DP  RH WIND       PRES   REMARKS
ADRIAN         PTSUNNY   19   1  45 NW13G22   30.23R WCI   6
ALMA           CLOUDY    18   8  64 N9        30.21S WCI   7
ANN ARBOR      CLOUDY    18   4  54 NW8       30.21R WCI   8
BAD AXE        CLOUDY    10   3  73 NW14      30.19R WCI  -6
CARO           PTSUNNY   12   3  67 NW8       30.20R WCI   1
DETROIT CITY   PTSUNNY   17   3  54 W13G18    30.21R WCI   4
DETROIT        CLOUDY    18   4  54 NW15      30.23R WCI   4
FLINT          CLOUDY    16   4  59 NW12      30.21R WCI   3
GROSSE ILE     CLOUDY    18   5  57 NW14      30.21R WCI   4
HILLSDALE      CLOUDY    17   4  56 W10       30.19S WCI   5
HOWELL         CLOUDY    17   6  62 NW10      30.19R WCI   4

CITY           SKY/WX    TMP DP  RH WIND       PRES   REMARKS
JACKSON        CLOUDY    18   2  49 NW12G20   30.20R WCI   5
LAMBERTVILLE   CLOUDY    19   3  48 NW10      30.24R WCI   8
LANSING        CLOUDY    19   3  49 NW9       30.21R WCI   8
LAPEER         CLOUDY    14   4  67 NW13      30.19R WCI  -1
MASON          CLOUDY    17   4  56 NW13      30.20R WCI   4
MONROE         CLOUDY    19   3  50 NW13G18   30.22R WCI   6
MT. CLEMENS    PTSUNNY   16   4  59 NW13      30.18S WCI   2
PONTIAC        PTSUNNY   14   3  61 NW13      30.17R WCI   0
PORT HOPE        N/A     11   4  73 NW15G22   30.17R WCI  -5
PORT HURON     CLOUDY    14   1  57 NW12G20   30.19R WCI   0
TRI CITIES     HAZE      17   3  54 NW18      30.21R VSB<1/4 WCI   1
MIDLAND        CLOUDY    17   4  55 NW10G20   30.20S WCI   5
TROY           PTSUNNY   18   5  57 NW12G18   30.22R WCI   5
SAGINAW HB     CLOUDY    16   9  73 NW6       30.22R WCI   7
$$
MIZ043>046-050>051-056>058-064>065-071>073-077>080-111800-
SOUTHWEST LOWER MICHIGAN

CITY           SKY/WX    TMP DP  RH WIND       PRES   REMARKS
BATTLE CREEK   CLOUDY    19   6  57 NW10      30.22S WCI   7
BENTON HARBOR  CLOUDY    21   8  57 NW7       30.27R WCI  12
BIG RAPIDS     CLOUDY    18   2  49 NW8G17    30.18R WCI   8
COLDWATER      CLOUDY    19   6  59 NW8       30.23R WCI   8
FREMONT        CLOUDY    20   3  47 N10       30.21S WCI   9
HOLLAND        CLOUDY    21   7  54 VRB6      30.25R WCI  13
GRAND RAPIDS   PTSUNNY   20   5  52 NW7       30.22R WCI  11
IONIA          PTSUNNY   19   3  50 NW10      30.20S WCI   7
KALAMAZOO      CLOUDY    18   7  62 NW6       30.24R WCI  10
LUDINGTON      CLOUDY    18   6  61 N7        30.23S WCI   8
MARSHALL       CLOUDY    19   2  47 NW8G16    30.21S WCI   9
MOUNT PLEASANT MOSUNNY   19   7  60 N6        30.19S WCI  11
MUSKEGON       CLOUDY    21   4  47 NW10      30.25R WCI  10
SOUTH HAVEN    LGT SNOW  18  13  80 CALM      30.26S
$$
MIZ016>042-111800-
NORTHERN LOWER MICHIGAN

CITY           SKY/WX    TMP DP  RH WIND       PRES   REMARKS
ALPENA         MIX PCPN   9  -1  64 NW13G22   30.18R WCI  -7
BEAVER ISLAND  CLOUDY    14   6  69 CALM      30.17F
BELLAIRE       CLOUDY    15   5  63 N5        30.19F WCI   8
CADILLAC       CLOUDY    15   4  60 NW8       30.13R WCI   5
CHARLEVOIX     CLOUDY    14   7  73 CALM      30.20F HAZE
FRANKFORT      CLOUDY    17   7  64 NW9       30.22R WCI   6
GRAYLING       CLOUDY    12   2  65 W12G17    30.15R WCI  -2
HARBOR SPRINGS MOSUNNY   13   1  58 S6        30.17S WCI   3
HOUGHTON LAKE  CLOUDY    13   3  64 NW7       30.15R WCI   3
MANISTEE       CLOUDY    18   3  53 NW6       30.22R WCI   9
OSCODA         MOSUNNY   10  -2  56 NW14      30.18R WCI  -5
PELLSTON       SUNNY     12   0  58 CALM      30.17F
ROGERS CITY    LGT SNOW   9   1  72 NW9G17    30.19S WCI  -5
TRAVERSE CITY  LGT SNOW  16  11  80 W3        30.18S
$$
MIZ007>008-015-111800-
EASTERN UPPER MICHIGAN

CITY           SKY/WX    TMP DP  RH WIND       PRES   REMARKS
KINROSS        SUNNY      1  -2  85 CALM      30.14F
MACKINAC ISLAN SUNNY      8  -1  64 CALM      30.15S
NEWBERRY       CLOUDY    11   3  70 SW3       30.13S HAZE
S. S. MARIE    SUNNY      2  -9  60 SE6       30.14F WCI  -9
MUNISING         N/A     15   5  64 W14G21    30.16S WCI   0
$$
MIZ004>006-011>014-085-111800-
CENTRAL UPPER MICHIGAN

CITY           SKY/WX    TMP DP  RH WIND       PRES   REMARKS
MANISTIQUE     CLOUDY    15   6  65 W14       30.15S WCI   1
ESCANABA       SUNNY     14  -2  48 NW10      30.21R WCI   1
MENOMINEE      SUNNY     12   0  57 SW7       30.24S WCI   2
SAWYER-GWINN   MOSUNNY    9   0  66 NW12      30.14S WCI  -6
$$
MIZ001>003-009>011-084-111800-
WESTERN UPPER MICHIGAN

CITY           SKY/WX    TMP DP  RH WIND       PRES   REMARKS
IRON MOUNTAIN  SUNNY     12  -1  56 NW14      30.17S WCI  -3
HOUGHTON       LGT SNOW  10   4  76 NW16      30.15S VSB 1   WCI  -7
COPPER HARBOR    N/A     12   5  73 N20G26    30.16F WCI  -6
IRONWOOD       PTSUNNY    7   1  78 W8        30.19S WCI  -6
$$

ABBREVIATIONS USED IN REMARKS
   TC - TEMPERATURE IN CELSIUS
  WCI - WIND CHILL INDEX
   HX - HEAT INDEX
  VSB - VISIBILITY





USA.gov is the U.S. government's official web portal to all federal, state and local government web resources and services.